Overview Statistics Trail Chart Weather Telemetry Raw packets
 

This is the latest recevied weather packets stored in our database for station/object N0QV. If no packets are shown the sender has not sent any weather packets the latest 10 day(s).

<< 86 87 88 89 90 91 92 >>
Time Temp. Humidity Pressure Rain* Wind** Luminosity Snow
1788040869 27.78° C 66% 1008.6 hPa 0 mm - 267 W/m² -
1788040568 28.33° C 65% 1008.6 hPa 0 mm - 188 W/m² -
1788040264 28.33° C 65% 1008.5 hPa 0 mm - 333 W/m² -
1788039963 28.33° C 65% 1008.7 hPa 0 mm - 340 W/m² -
1788039658 28.33° C 63% 1008.6 hPa 0 mm - 386 W/m² -
1788039353 28.33° C 62% 1009.2 hPa 0 mm - 356 W/m² -
1788039049 27.78° C 65% 1008.9 hPa 0 mm - 281 W/m² -
1788038744 28.33° C 65% 1009 hPa 0 mm - 141 W/m² -
1788038439 28.33° C 65% 1008.7 hPa 0 mm - 327 W/m² -
1788038139 28.33° C 62% 1008.9 hPa 0 mm - 263 W/m² -
1788037838 28.33° C 62% 1008.9 hPa 0 mm - 276 W/m² -
1788037533 27.78° C 64% 1009.2 hPa 0 mm - 458 W/m² -
1788037229 27.78° C 64% 1009.3 hPa 0 mm - 228 W/m² -
1788036927 28.89° C 61% 1009 hPa 0 mm - 197 W/m² -
1788036625 28.89° C 61% 1009.3 hPa 0 mm - 635 W/m² -
1788036320 27.78° C 62% 1009.4 hPa 0 mm - 668 W/m² -
1788036015 27.78° C 62% 1009.6 hPa 0 mm - 228 W/m² -
1788035714 27.78° C 60% 1009.8 hPa 0 mm - 212 W/m² -
1788035410 27.78° C 62% 1009.3 hPa 0 mm - 260 W/m² -
1788035105 27.78° C 61% 1009.8 hPa 0 mm - 260 W/m² -
1788034801 27.78° C 63% 1009.4 hPa 0 mm - 204 W/m² -
1788034497 28.33° C 62% 1009.9 hPa 0 mm - 207 W/m² -
1788034193 28.89° C 60% 1009.5 hPa 0 mm - 283 W/m² -
1788033892 28.89° C 60% 1009.8 hPa 0 mm - 331 W/m² -
1788033591 29.44° C 57% 1009.5 hPa 0 mm - 498 W/m² -

* Rain latest hour (hover to see other rain measurements)
** Current wind speed in m/s (hover to see current wind gust speed)